Flag for Belarus Weather past 2 weeks in Minsk, Belarus

Now
54 °F

Sprinkles. Passing clouds.


Feels Like: 50 °F
Forecast: 45 / 52 °F
Wind: 10 mph from West

Location: Loshitsa / Minsk International 1

Current Time: Oct 20, 2014 at 9:42:04 PM

Latest Report: Oct 20, 2014 at 9:00 PM


Visibility: 2 mi

Pressure: 29.53 "Hg

Humidity: 94%

Dew point: 52 °F

Location of MinskLocation

Historic Weather in Minsk — Graph

°F

Minsk temperature yesterday

Maximum temperature yesterday: 43 °F (at 4:00 PM)
Minimum temperature yesterday: 28 °F (at 8:00 AM)
Average temperature yesterday: 37 °F

Past Weeks' High & Low Weather Summary

 TemperatureHumidityPressure
High68 °F (Oct 10, 3:00 PM)100% (Oct 10, 8:00 AM)30.51 "Hg (Oct 10, 8:00 AM)
Low28 °F (Oct 19, 8:00 AM)40% (Oct 7, 6:00 PM)29.53 "Hg (Oct 20, 3:00 PM)
Average51 °F76%30.02 "Hg
* Reported Oct 5 8:00 PM — Oct 20 8:30 PM, Minsk, Weather by CustomWeather, © 2014

Note: Actual official high and low records may vary slightly from our data, if they occured in-between our weather recording intervals... More about our weather records

Advertising

Minsk weather history for previous 24 hours

 ConditionsComfort  
Time TempWeatherWind HumidityBarometerVisibility
8:30 PM
Oct 20
54 °FLight rain. Passing clouds.10 mph94%29.53 "Hg4 mi
8:00 PM54 °FPassing clouds.10 mph94%29.53 "HgN/A
7:30 PM54 °FPassing clouds.10 mph94%29.53 "HgN/A
7:00 PM54 °FOvercast.10 mph94%29.53 "HgN/A
6:30 PM55 °FLight rain. Overcast.15 mph82%29.56 "Hg3 mi
6:00 PM55 °FPartly sunny.20 mph82%29.56 "HgN/A
5:30 PM57 °FPartly sunny.20 mph72%29.56 "HgN/A
5:00 PM57 °FPartly sunny.20 mph72%29.56 "HgN/A
4:30 PM59 °FPartly sunny.17 mph72%29.56 "HgN/A
4:00 PM59 °FPartly sunny.17 mph72%29.56 "HgN/A
3:30 PM59 °FPartly sunny.20 mph72%29.53 "HgN/A
3:00 PM59 °FPartly sunny.20 mph72%29.53 "HgN/A
2:30 PM59 °FPartly sunny.15 mph77%29.56 "HgN/A
2:00 PM59 °FPartly sunny.10 mph77%29.56 "HgN/A
1:30 PM59 °FPartly sunny.13 mph82%29.56 "HgN/A
1:00 PM59 °FPartly sunny.10 mph82%29.56 "HgN/A
12:30 PM55 °FPartly sunny.13 mph94%29.56 "HgN/A
11:00 AM55 °FLight rain. Fog.10 mph94%29.56 "Hg3 mi
10:30 AM55 °FLight rain. Low clouds.13 mph94%29.56 "HgN/A
10:02 AM55 °FLight rain. Fog.10 mph94%29.56 "Hg2 mi
9:30 AM54 °FLight rain. Fog.13 mph94%29.56 "Hg2 mi
9:00 AM54 °FLight rain. Fog.10 mph94%29.56 "Hg2 mi
8:30 AM52 °FFog.10 mph100%29.56 "Hg3 mi
8:00 AM52 °FLight rain. Fog.10 mph100%29.56 "Hg2 mi
Weather by CustomWeather, © 2014

See weather overviewHow to use our weather pages